Regional Weather Roundup
Issued by NWS Tiyan, Guam

Home | Current Version | Previous Version | Text Only | Print | Product List | Glossary On
Versions: 1 2 3 4 5 6 7 8 9 10 11 12 13 14 15 16 17 18 19 20 21 22 23 24 25 26 27 28 29 30 31 32 33 34 35 36 37 38 39 40 41 42 43 44 45 46 47 48 49 50
000
ASGM40 PGUM 220512
RWRGUM
WEATHER ROUNDUP FOR THE MARIANAS
NATIONAL WEATHER SERVICE TIYAN GU
300 PM CHST FRI AUG 22 2014

GUZ001>004-220600-
MARIANA ISLANDS-

CITY           SKY/WX    TMP DP  RH WIND       PRES   REMARKS
GUAM AIRPORT   TSTM      81  75  83 NW6       29.84S
ANDERSEN AFB   MOSUNNY   82  75  78 NW6       29.84S THUNDER
ROTA AIRPORT   MOSUNNY   84  75  74 VRB2      29.84F HX  92
TINIAN AP      MOSUNNY   86  81  84 S8        29.79F HX 102
SAIPAN AP      MOSUNNY   88  75  66 SE7       29.81F HX  97

$$




USA.gov is the U.S. government's official web portal to all federal, state and local government web resources and services.